STARLINK-2388, 47807

Orbit data source: Space-Track

STARLINK-2388, 47807 is a payload satellite owned by SpaceX/Seattle (US) in LEO that was launched on Thu, 11 Mar 2021 UTC via an FALCON 9 launch vehicle from the Air Force Eastern Test Range (AFETR). Payload-class satellites include a variety of spacecraft equipped with specific instruments for various scientific and technological missions. These include communications satellites like Starlink; space stations such as the ISS; scientific satellites like the Hubble; Earth observation satellites from companies like Planet Labs, Umbra, and HawkEye 360; GPS; miniature CubeSats for education and research; and military/defense satellites.

Loading next visibility...
Identifier
47807, 2021-018W
Orbit
LEO
Country
Flag of USUS
Related business
Manufacturer
SpaceX/Seattle
Mission
Operational Commercial Communications
Bus & Motor
STARLINK, Unknown motor
Mass
260 kg wet, ~248 kg dry
Launch date (UTC)
2021-03-11 (5 years ago)
Launch vehicle
FALCON 9
Launch site
Air Force Eastern Test Range (AFETR)
Object type
Payload
Rocket body
Debris
Shape & HBR
Box + 1 Pan, 10.1 m
Radar Cross Section
13.562 m², Large (>1 m²)

Expand to show TLE details & history
Last TLE update: 3 days ago

TLE from 3 days ago
0 STARLINK-2388
1 47807U 21018W   26170.52786463  .00005098  00000-0  17590-3 0  9992
2 47807  53.1570 102.9293 0001145  92.1180 267.9953 15.31703948292686
Epoch: 2026-06-19T12:40Z
TLE epoch observation values (Epoch: 2026-06-19T12:40:07.504Z)
Latitude
0.00004°
Longitude
5.14251°
Altitude
471.656 km
Speed
7.631 km/s
True Right ascension
06h 51m 43s
True Declination
0° 00' 00"
Sunlit
Object was in daylight at epoch
Visualization orbit readout
Latitude
Unknown
Longitude
Unknown
Altitude
Unknown
Speed
Unknown
Apparent Right ascension
Unknown
Apparent Declination
Unknown
Sunlit
N/A
Visualization observer readout
Local Sidereal Time
21:42:52
Azimuth
Unknown
Elevation
Unknown
Doppler factor
Unknown
Orbital elements
Apogee altitude
471.77 km
Perigee altitude
470.201 km
Semi-major axis
6,849.122 km
Eccentricity
0.00011
Inclination
53.157°
RAAN
102.9293°
Arg. of periapsis
92.118°
True anomaly
267.98219°
Mean anomaly
267.9953°
Eccentric anomaly
267.98874°
Mean motion
3.82905 °/min
Orbital period
94.02 mins
BSTAR
0.0001759
Loading maneuver chart data...
Computing Atmospheric mass density...
Loading historical data...
Loading historical data...
Loading historical data...
Loading historical data...
Loading historical data...
Loading historical data...
Loading historical data...

Documentation

Showing up to 5 results
|